Weather in Leysin

Switzerland     46°20′31″N   7°00′45″E
temp.,
°C
wind,
m/s
gust,
m/s
humid.,
%
clouds,
%
prec.,
mm/h
press.,
hPa
HPBL,
m
9 december, thu
thu901:00−3nw2398100 8.6 1005230
04:00−4nnw3498100 4.9 1007312
07:00−8wnw119889 6.2 101120
10:00−5nnw1197100 0.3 1012186
13:00−3n229095 0.8 1011543
16:00−6nne019562 0.1 101215
19:00−13sse229857 0.1 101822
22:00−15se229642 0.0 101931
10 december, fri
fri1001:00−17se3394100 0.0 101842
04:00−11se3389100 0.0 101061
07:00−8se3391100 0.6 100472
10:00−5sse2596100 3.4 1003231
13:00−2nnw1198100 9.4 1001231
16:00−2wnw2399100 8.0 1003284
19:00−5w2298100 12.8 100867
22:00−4wnw2398100 4.3 1009191
11 december, sat
sat1101:00−5nnw2398100 7.3 1013159
04:00−9nne119995 0.9 101815
07:00−12se1110099 1.1 102327
10:00−8se229679 0.1 1024187
13:00−5e019152 0.1 1024295
16:00−8s009844 0.0 102610
19:00−14sse229771 0.0 103320
22:00−15se229631 0.0 103523
12 december, sun
sun1201:00−15se229734 0.0 103626
04:00−16se229742 0.0 103730
07:00−15se229634 0.0 103832
10:00−8se239226 0.0 103480
13:00−2se228331 0.0 1030161
16:00−3sse119162 0.0 103017
19:00−6se229243 0.0 103331
22:00−7se229322 0.0 103425
13 december, mon
mon1301:00−7sse229570 0.0 103227
04:00−1se239674 0.0 102870
07:00−3se229718 0.0 102825
10:000se2210030 0.0 102754
13:000se22100100 0.0 102664
16:000se229997 0.0 102771
19:00−1se229752 0.0 102846
22:00−4se229527 0.0 103037